User: anonymous   Login
Location: Unspecified
(0.0000°N, 0.0000°E)
Time: 07:30:34
(UTC+00:00)
Language:

Diademe D-1C - Orbit

View from above orbital plane
View from above orbital plane
View from above satellite
View from above satellite

Ground track
Ground track

The orbit data is extracted from the following two-line orbital elements,

1  2674U 67011A   17148.87880694 +.00000168 +00000-0 +43252-4 0  9990
2  2674 039.9263 291.0766 0269937 300.7962 056.6500 14.54346346607079
Epoch (UTC): 28 May 2017 21:05:28
Eccentricity: 0.0269937
inclination: 39.9263°
perigee height: 520 km
apogee height: 903 km
right ascension of ascending node: 291.0766°
argument of perigee: 300.7962°
revolutions per day: 14.54346346
mean anomaly at epoch: 56.6500°
orbit number at epoch: 60707

The dashed part of the orbit path shows where the satellite is in the earth's shadow,  

DLR